Wind_Speed
50 53 56 59 61 64 63 60 60 59 60 61 61 61 59 59 58 57 57 59 60 60 61 61 65 64 67 69 69 73 76 76 77 77 77 76 75 75 76 78 80 78 76
54 57 55 58 63 63 60 61 60 61 61 61 60 61 59 57 56 57 57 58 58 59 61 63 65 67 69 71 75 76 76 75 74 68 68 69 71 72 77 79 82 82 82
62 60 62 62 63 66 63 63 63 65 65 64 62 61 60 57 54 55 56 56 58 62 65 67 71 70 72 73 70 69 71 69 70 67 66 67 72 73 75 75 76 78 79
65 66 66 68 69 71 69 70 69 64 63 61 59 59 58 57 58 60 60 62 64 68 69 70 68 67 69 67 64 65 64 66 67 66 66 65 66 70 75 75 72 76 81
62 64 64 70 69 69 71 68 67 64 59 59 61 65 60 58 61 63 64 65 65 65 64 60 63 64 58 59 62 62 61 62 64 67 68 66 70 71 72 70 70 70 69
81 63 57 59 62 66 64 61 65 63 55 58 61 60 58 59 63 63 63 66 65 66 61 59 61 59 56 54 51 53 54 56 57 56 61 66 70 75 75 73 73 70 70
77 72 73 73 78 73 75 67 69 65 65 67 67 62 61 63 62 63 65 63 66 66 62 58 55 54 55 51 57 53 58 62 61 67 68 67 69 73 75 76 76 79 82
83 80 80 81 79 75 74 71 74 73 69 68 66 62 62 64 62 65 63 66 67 65 64 57 56 59 58 53 61 61 64 65 66 68 71 73 81 82 83 82 81 81 79
92 88 86 85 85 85 82 74 79 78 76 76 67 66 64 63 63 64 66 66 66 67 62 62 58 61 61 65 67 68 70 73 75 75 77 83 88 93 88 83 78 75 76
88 92 91 92 87 80 77 71 75 73 67 70 69 65 59 61 64 65 60 60 63 62 66 64 61 66 68 72 71 69 73 77 74 77 81 85 86 85 81 81 83 85 84
80 77 59 58 59 61 64 68 72 75 76 73 67 62 56 59 61 59 59 57 61 70 67 64 70 74 76 76 74 72 73 74 76 81 84 85 80 76 78 81 81 84 85
80 76 63 67 67 66 69 71 74 74 67 65 64 59 60 58 60 59 66 60 66 67 70 71 77 76 74 76 71 70 73 79 82 83 81 80 79 76 77 79 78 81 84
85 80 74 64 66 71 69 74 68 65 63 63 59 56 58 61 66 54 63 69 67 75 70 75 79 79 71 74 79 75 75 82 80 81 79 76 77 76 78 76 77 80 82
75 77 71 66 65 69 74 71 73 67 65 68 64 66 66 60 62 64 69 73 70 73 77 81 80 85 81 80 82 83 79 79 82 77 77 74 75 73 73 76 78 80 82
81 80 69 80 69 76 78 82 84 74 71 71 68 70 61 64 72 66 69 71 69 67 75 77 81 85 86 86 81 81 77 78 78 75 73 69 68 66 68 75 78 79 82
82 85 79 81 79 77 82 88 82 77 76 76 78 75 74 75 74 72 75 75 75 72 74 74 82 81 77 73 72 71 73 78 72 70 67 68 65 65 68 74 77 79 80
111 100 94 83 81 84 90 86 87 83 82 85 80 79 78 80 81 82 86 88 78 72 74 72 73 79 80 71 73 71 74 64 63 63 61 63 62 66 70 72 74 78 78
103 95 88 83 85 82 96 99 82 83 89 85 79 82 78 64 71 71 80 77 72 72 83 83 92 88 73 70 73 69 55 55 57 58 58 59 62 65 68 71 75 78 78
94 97 92 95 90 88 101 102 88 84 80 72 79 82 77 79 84 85 80 72 86 88 89 84 84 67 68 70 66 52 52 53 54 55 57 59 61 64 68 73 77 79 77
73 80 92 101 102 100 94 105 102 102 93 90 88 87 87 87 89 80 85 93 92 73 62 62 65 68 66 66 56 53 51 51 54 56 56 58 62 64 67 73 79 81 74
52 56 55 53 55 64 68 78 83 81 87 92 97 85 85 81 81 75 69 69 68 66 64 63 61 56 50 49 51 47 48 52 55 56 56 59 62 64 69 75 79 80 70
32 31 30 30 34 40 43 46 51 53 55 56 60 57 59 61 58 57 55 56 57 54 54 54 46 46 47 46 44 46 49 54 55 54 56 60 63 66 70 75 79 77 64
30 29 29 29 29 31 33 33 35 38 36 35 40 43 39 38 40 44 45 45 54 59 54 46 44 42 41 42 44 48 52 54 53 54 58 62 65 68 72 76 78 72 59
26 26 27 29 31 33 33 34 34 33 32 33 28 27 35 40 41 45 48 48 49 44 50 50 44 39 41 44 48 51 53 53 55 57 61 65 67 70 74 77 75 62 55
29 27 27 25 24 25 26 26 29 31 29 28 27 33 37 38 44 47 44 47 49 44 40 37 36 40 45 48 50 52 54 56 58 60 64 68 68 72 75 75 70 52 51
16 15 17 18 20 22 26 26 23 24 29 32 32 38 35 37 40 47 46 40 35 30 31 35 40 44 46 48 50 52 56 58 60 64 68 69 72 74 75 70 60 47 47
Wind_Direction
264 258 255 258 260 266 270 274 274 273 274 274 274 275 276 276 274 274 273 272 272 272 272 271 273 278 281 283 285 286 285 282 278 278 282 285 286 282 278 276 273 270 272
262 247 254 256 257 266 268 273 276 274 273 273 275 277 274 271 269 269 269 269 269 268 267 275 280 280 281 283 284 284 282 283 285 288 286 284 284 284 280 277 276 275 275
262 256 248 256 260 265 268 272 273 273 273 274 273 272 268 265 263 265 270 275 275 276 278 279 279 278 281 282 285 284 286 291 293 292 289 286 284 281 279 279 278 276 276
260 261 253 257 259 260 265 269 269 270 269 268 263 261 260 262 266 270 272 272 273 273 273 277 281 282 282 284 287 290 290 293 294 295 295 294 288 284 282 281 280 280 279
273 272 269 265 265 264 264 264 266 260 257 259 260 259 262 268 269 270 272 274 276 276 278 282 284 286 285 288 290 288 294 299 302 303 303 301 298 295 292 290 288 284 284
270 265 264 266 268 269 267 270 262 252 254 257 258 262 266 266 267 271 271 273 274 276 278 278 282 282 284 287 288 297 309 309 310 316 319 315 305 296 295 294 290 287 283
261 259 257 261 270 270 273 266 262 251 253 258 262 263 264 267 269 269 274 267 267 270 271 275 274 278 278 278 294 295 304 306 306 309 317 316 314 310 302 295 289 289 290
257 254 255 260 262 262 259 262 262 257 260 265 266 264 263 266 267 264 263 259 265 265 268 270 270 272 272 280 296 291 298 303 307 309 314 314 318 317 311 311 298 294 295
256 254 254 254 255 255 254 256 258 262 268 271 264 263 262 265 260 265 261 265 259 265 274 275 272 273 272 278 286 287 294 300 303 309 311 311 313 315 312 308 299 296 297
266 263 263 261 262 266 265 267 264 263 266 269 269 263 269 265 264 265 277 277 269 271 270 275 271 268 272 276 281 287 293 300 303 306 311 312 313 313 305 297 298 298 298
263 262 256 256 257 259 261 266 269 268 266 269 266 266 261 266 270 264 271 271 276 270 269 263 276 278 276 278 285 288 293 298 305 309 310 311 307 302 303 296 297 300 300
263 253 258 255 259 267 273 276 275 273 267 266 263 267 264 270 271 273 271 272 277 274 267 268 276 277 274 283 290 292 296 299 302 304 306 302 304 297 299 297 297 299 300
257 253 251 259 262 269 276 278 274 270 268 271 275 272 263 269 269 267 269 274 278 271 266 271 274 273 278 282 287 291 295 294 300 302 301 299 297 295 297 297 300 301 302
255 254 263 265 266 259 259 258 263 263 268 261 272 269 268 272 266 259 270 263 270 273 276 277 273 276 279 282 287 288 293 294 297 299 299 298 295 295 298 299 301 302 306
253 252 250 263 270 265 260 257 255 250 261 258 258 266 263 265 270 269 265 262 259 263 268 270 271 276 280 281 284 289 298 288 293 291 296 294 292 296 299 301 303 307 309
251 248 258 264 264 266 262 253 247 251 255 254 256 259 265 269 269 270 264 254 250 252 258 262 269 274 282 286 288 294 286 287 288 293 293 292 294 297 300 304 308 309 313
256 258 258 260 253 259 249 246 247 245 247 253 254 258 258 261 262 262 259 254 248 250 254 267 277 289 293 286 289 285 280 283 288 290 288 289 294 299 304 307 309 312 316
263 262 252 252 253 258 249 247 235 235 240 238 241 245 243 255 253 243 254 245 249 268 273 276 280 293 287 280 277 275 281 286 286 284 286 291 296 302 305 309 312 315 317
261 261 260 257 258 260 254 252 243 244 247 245 239 241 242 266 275 274 259 255 265 284 284 283 283 275 276 272 271 281 284 283 278 281 288 291 299 304 307 311 314 318 316
261 261 260 261 263 261 261 252 251 255 253 256 260 263 265 262 274 272 272 271 274 274 271 270 265 269 267 268 269 282 282 275 276 284 286 293 301 306 310 311 315 318 315
257 259 261 262 263 266 269 270 271 273 271 270 270 275 279 276 277 273 267 265 264 264 260 259 263 266 266 270 274 278 273 272 280 281 287 296 302 308 311 312 316 318 314
247 247 249 249 249 256 262 264 267 269 270 269 269 264 262 264 261 260 259 256 261 266 262 263 260 265 269 272 275 272 270 275 278 284 292 298 304 308 310 312 315 317 313
241 247 258 260 257 258 260 262 266 267 266 263 258 257 259 256 252 257 258 256 257 256 259 257 258 265 270 273 274 271 270 273 281 289 294 299 304 307 310 312 315 316 311
247 254 255 258 258 256 255 259 259 258 254 250 239 237 246 253 255 253 254 253 259 257 251 254 261 265 269 271 270 268 271 277 284 290 294 301 304 307 310 312 315 314 311
260 258 256 255 255 251 250 251 254 258 248 222 240 248 251 248 245 244 247 251 255 254 251 256 261 265 266 266 269 271 277 282 287 292 297 301 304 307 309 313 314 309 310
238 240 246 258 255 245 247 255 246 245 244 238 247 255 250 243 241 242 248 250 246 247 253 260 263 264 266 269 273 278 283 287 291 295 299 302 305 308 310 311 311 306 310
Height
5651 5648 5650 5650 5651 5649 5648 5646 5645 5644 5643 5643 5642 5642 5641 5639 5638 5638 5638 5637 5637 5635 5633 5631 5630 5629 5627 5625 5622 5620 5617 5615 5617 5615 5610 5605 5599 5595 5591 5588 5583 5580 5579
5630 5632 5633 5633 5633 5632 5632 5631 5630 5629 5627 5626 5626 5627 5625 5623 5623 5622 5620 5619 5618 5618 5616 5615 5613 5611 5610 5607 5604 5601 5598 5595 5596 5596 5590 5587 5581 5578 5573 5568 5565 5562 5559
5611 5612 5614 5615 5615 5612 5613 5614 5613 5609 5610 5609 5610 5610 5610 5609 5607 5606 5604 5602 5602 5602 5600 5598 5597 5593 5591 5590 5586 5583 5581 5577 5574 5574 5572 5567 5562 5554 5548 5543 5543 5541 5536
5589 5591 5594 5596 5595 5593 5593 5595 5594 5593 5594 5592 5594 5593 5592 5591 5589 5589 5587 5585 5583 5582 5580 5580 5578 5576 5574 5570 5568 5566 5563 5558 5555 5552 5552 5547 5541 5532 5526 5524 5525 5517 5515
5574 5576 5579 5577 5577 5576 5574 5576 5576 5575 5575 5574 5574 5575 5575 5574 5573 5570 5568 5568 5566 5564 5563 5561 5560 5558 5556 5554 5552 5548 5543 5539 5535 5532 5530 5527 5517 5511 5504 5502 5500 5498 5494
5554 5554 5556 5557 5556 5555 5555 5558 5558 5555 5555 5556 5557 5558 5555 5555 5555 5552 5550 5548 5547 5546 5544 5541 5539 5538 5538 5536 5534 5530 5526 5521 5517 5514 5511 5507 5500 5490 5484 5480 5477 5474 5473
5527 5532 5534 5534 5536 5535 5538 5534 5535 5534 5534 5535 5536 5536 5537 5536 5534 5533 5531 5529 5528 5527 5526 5525 5522 5521 5519 5518 5517 5512 5508 5503 5499 5494 5490 5485 5483 5472 5467 5460 5455 5451 5445
5502 5504 5508 5509 5511 5511 5514 5513 5515 5515 5513 5513 5514 5514 5514 5516 5513 5512 5513 5511 5510 5510 5509 5507 5504 5502 5500 5498 5497 5493 5487 5480 5475 5471 5468 5464 5457 5450 5442 5435 5428 5423 5420
5476 5476 5479 5483 5485 5489 5489 5489 5491 5491 5493 5493 5495 5495 5495 5495 5493 5494 5494 5494 5492 5492 5491 5490 5486 5485 5482 5479 5476 5473 5469 5460 5456 5451 5446 5441 5436 5428 5417 5411 5402 5395 5393
5449 5450 5454 5459 5463 5464 5465 5468 5469 5468 5471 5474 5476 5477 5477 5477 5475 5477 5479 5477 5475 5473 5474 5470 5469 5464 5460 5459 5456 5453 5449 5443 5438 5431 5424 5417 5413 5404 5392 5384 5378 5369 5362
5430 5429 5432 5435 5439 5442 5443 5446 5448 5450 5451 5455 5458 5457 5457 5459 5457 5458 5461 5459 5458 5455 5453 5450 5448 5445 5442 5439 5436 5431 5427 5423 5416 5411 5403 5399 5391 5383 5375 5364 5356 5346 5339
5408 5408 5410 5412 5415 5417 5419 5421 5423 5427 5432 5435 5436 5438 5438 5438 5437 5440 5438 5440 5436 5435 5433 5430 5428 5427 5424 5420 5416 5411 5406 5401 5397 5390 5382 5375 5369 5363 5354 5344 5335 5326 5317
5383 5384 5388 5390 5394 5394 5395 5396 5399 5404 5408 5412 5414 5416 5418 5419 5418 5418 5421 5422 5417 5415 5413 5411 5409 5407 5403 5399 5396 5391 5385 5381 5375 5370 5362 5354 5347 5341 5332 5324 5316 5304 5298
5359 5361 5364 5367 5371 5375 5378 5381 5381 5384 5386 5390 5393 5395 5398 5399 5398 5400 5402 5398 5398 5398 5396 5392 5390 5388 5383 5378 5375 5372 5366 5361 5356 5349 5342 5335 5330 5324 5314 5302 5295 5284 5278
5332 5336 5340 5343 5349 5353 5356 5359 5361 5365 5368 5372 5372 5373 5377 5380 5382 5381 5383 5382 5381 5377 5374 5372 5369 5366 5362 5359 5353 5349 5346 5343 5337 5329 5323 5316 5311 5306 5298 5286 5275 5267 5255
5302 5305 5308 5317 5324 5329 5333 5335 5338 5341 5345 5349 5352 5354 5357 5358 5360 5360 5363 5361 5363 5358 5353 5350 5348 5347 5343 5338 5333 5329 5327 5323 5317 5312 5305 5298 5294 5288 5282 5271 5259 5247 5237
5265 5278 5282 5288 5297 5304 5308 5312 5317 5315 5320 5326 5329 5333 5336 5339 5338 5338 5339 5339 5339 5339 5334 5331 5331 5328 5323 5318 5314 5311 5308 5302 5299 5295 5289 5284 5277 5270 5262 5254 5244 5230 5220
5226 5238 5249 5260 5268 5275 5281 5286 5287 5289 5294 5300 5302 5308 5312 5316 5315 5311 5315 5314 5316 5318 5310 5310 5308 5306 5303 5300 5298 5293 5289 5285 5282 5278 5273 5270 5263 5254 5246 5237 5226 5213 5199
5203 5208 5216 5224 5235 5241 5248 5254 5259 5262 5266 5273 5278 5282 5288 5289 5289 5290 5291 5297 5295 5286 5285 5285 5285 5283 5281 5280 5281 5276 5271 5270 5267 5263 5259 5256 5248 5238 5229 5219 5209 5196 5179
5178 5183 5188 5196 5206 5211 5217 5224 5229 5234 5239 5246 5250 5254 5260 5262 5262 5266 5272 5269 5264 5263 5261 5264 5263 5261 5261 5262 5260 5260 5257 5255 5254 5250 5247 5241 5232 5221 5213 5204 5191 5177 5165
5158 5163 5167 5172 5177 5181 5186 5193 5200 5206 5212 5219 5222 5225 5228 5231 5237 5242 5241 5240 5239 5241 5244 5244 5247 5247 5245 5244 5245 5243 5242 5241 5239 5237 5233 5225 5216 5207 5199 5188 5176 5163 5149
5147 5150 5153 5156 5159 5163 5168 5173 5178 5183 5188 5193 5197 5199 5201 5210 5215 5217 5219 5220 5222 5224 5228 5231 5232 5232 5232 5231 5229 5229 5228 5227 5226 5223 5217 5210 5202 5193 5184 5173 5161 5149 5136
5137 5141 5143 5146 5149 5152 5156 5160 5164 5167 5171 5174 5175 5181 5191 5193 5197 5201 5205 5207 5208 5211 5215 5217 5218 5218 5218 5217 5217 5217 5216 5215 5212 5208 5204 5196 5188 5178 5169 5159 5147 5135 5123
5127 5130 5134 5137 5140 5142 5145 5147 5151 5155 5158 5161 5166 5172 5176 5180 5185 5189 5192 5196 5197 5198 5201 5203 5204 5205 5205 5205 5205 5205 5203 5200 5197 5193 5188 5181 5173 5162 5153 5143 5131 5120 5110
5121 5123 5125 5127 5130 5133 5136 5139 5142 5145 5147 5152 5156 5161 5165 5168 5172 5177 5181 5184 5185 5186 5188 5191 5192 5193 5194 5193 5192 5191 5189 5186 5183 5177 5171 5164 5155 5146 5138 5127 5116 5108 5100
5115 5119 5121 5123 5125 5127 5129 5131 5134 5136 5140 5144 5147 5151 5154 5158 5162 5166 5169 5171 5174 5176 5179 5181 5182 5183 5183 5182 5180 5177 5174 5170 5166 5160 5154 5146 5138 5130 5121 5112 5103 5096 5089